FW8147 Weather Reports


time (UTC)temp
C
wind
direction
speed
KPH
gust
KPH
rain 1hr
cm
rain 24hr
cm
rain mn
cm
humidity
%
barometer
mb
20260505140404 12 88 1.6 11.3 0.00 0.46 0.46 89 1007.0
20260505124817 13 45 6.4 12.9 0.00 0.46 0.46 89 1006.4
20260505124314 13 34 4.8 9.7 0.00 0.46 0.46 90 1006.4
20260505123810 14 39 8.0 11.3 0.00 0.46 0.46 91 1006.1
20260505123307 13 22 6.4 11.3 0.00 0.46 0.46 92 1006.2
20260505122803 13 133 3.2 6.4 0.00 0.46 0.46 92 1006.1
20260505122301 13 62 4.8 6.4 0.00 0.46 0.46 93 1006.3
20260505121757 13 346 3.2 4.8 0.00 0.46 0.46 93 1005.8
20260505121254 13 36 3.2 4.8 0.00 0.46 0.46 94 1005.8
20260505120750 13 91 3.2 4.8 0.00 0.46 0.46 94 1005.3
20260505120246 13 60 6.4 6.4 0.00 0.46 0.46 94 1005.4
20260505115745 13 137 1.6 3.2 0.00 0.46 0.46 94 1005.7
20260505115243 13 153 1.6 4.8 0.00 0.46 0.46 94 1005.6
20260505114740 13 128 1.6 3.2 0.00 0.46 0.46 94 1005.8
20260505114236 13 63 1.6 4.8 0.00 0.46 0.46 94 1005.3
20260505113733 14 83 4.8 6.4 0.00 0.46 0.46 93 1005.6
20260505113229 14 32 6.4 9.7 0.00 0.46 0.46 93 1005.8
20260505112725 14 181 1.6 4.8 0.00 0.46 0.46 94 1005.8
20260505112224 15 133 1.6 6.4 0.00 0.46 0.46 95 1005.1
20260505111723 15 47 3.2 9.7 0.00 0.46 0.46 96 1005.3
20260505111219 15 96 1.6 3.2 0.18 0.46 0.46 95 1005.6
20260505110715 15 224 4.8 11.3 0.00 0.43 0.43 95 1005.1
20260505110213 15 24 4.8 9.7 0.00 0.43 0.43 95 1004.6
20260505102148 15 166 0.0 3.2 0.00 0.43 0.43 94 1005.3
20260505101647 15 176 4.8 6.4 0.00 0.43 0.43 93 1005.3
20260505101143 15 32 0.0 3.2 0.13 0.43 0.43 92 1005.6
20260505100639 15 143 0.0 3.2 0.13 0.43 0.43 91 1005.6
20260505100136 15 71 6.4 9.7 0.00 0.41 0.41 91 1005.3
20260505095632 15 355 8.0 12.9 0.00 0.41 0.41 91 1005.1
20260505095130 16 317 3.2 4.8 0.00 0.41 0.41 88 1004.9
20260505094626 16 175 0.0 4.8 0.00 0.41 0.41 88 1004.5
20260505094122 16 157 0.0 6.4 0.00 0.41 0.41 88 1004.1
20260505093618 16 203 6.4 14.5 0.18 0.41 0.41 87 1004.2
20260505093116 16 141 1.6 6.4 0.18 0.41 0.41 86 1004.1
20260505092613 16 174 4.8 11.3 0.00 0.38 0.38 83 1003.9
20260505092112 16 197 8.0 16.1 0.00 0.38 0.38 83 1003.7
20260505091608 14 149 6.4 20.9 0.00 0.38 0.38 99 1003.7
20260505091106 14 142 4.8 11.3 0.00 0.38 0.38 99 1003.7
20260505090604 14 141 1.6 9.7 0.00 0.38 0.38 99 1003.6
20260505085559 14 130 3.2 16.1 0.13 0.38 0.38 99 1002.4
20260505085057 14 198 9.7 12.9 0.13 0.38 0.38 99 1002.6
20260505084555 15 151 11.3 24.1 0.00 0.36 0.36 99 1002.3
20260505084053 15 172 9.7 22.5 0.00 0.36 0.36 99 1003.1
20260505083549 15 205 8.0 14.5 0.18 0.36 0.36 99 1004.0
20260505083046 15 129 6.4 22.5 0.18 0.36 0.36 99 1004.2
20260505082542 15 232 8.0 16.1 0.18 0.33 0.33 99 1004.9
20260505082039 15 243 4.8 9.7 0.00 0.30 0.30 99 1005.3
20260505081535 15 223 8.0 14.5 0.13 0.30 0.30 99 1005.4
20260505081032 15 202 9.7 16.1 0.18 0.28 0.28 99 1005.1
20260505080529 15 240 6.4 16.1 0.30 0.28 0.28 98 1005.3
20260505080026 15 251 9.7 17.7 0.43 0.25 0.25 97 1005.4
20260505075521 15 247 14.5 20.9 0.48 0.23 0.23 96 1005.2
20260505075018 16 212 8.0 29.0 0.48 0.18 0.18 94 1004.9
20260505074516 16 217 12.9 24.1 0.30 0.13 0.13 93 1004.8
20260505074013 16 280 12.9 24.1 0.30 0.10 0.10 92 1004.8
20260505073510 16 237 8.0 12.9 0.18 0.08 0.08 91 1005.1
20260505073008 16 198 8.0 16.1 0.13 0.05 0.05 89 1005.2
20260505072504 17 250 4.8 11.3 0.18 0.03 0.03 87 1005.1
20260505072000 17 227 9.7 11.3 0.18 0.03 0.03 84 1004.9
20260505071455 17 167 8.0 16.1 0.00 0.00 0.00 82 1004.9
20260505070954 17 190 6.4 17.7 0.00 0.00 0.00 80 1005.0
20260505070450 17 230 3.2 6.4 0.00 0.00 0.00 79 1005.0
20260505065946 18 187 3.2 6.4 0.00 0.00 0.00 77 1004.9
20260505065443 18 145 6.4 12.9 0.00 0.00 0.00 76 1004.5
20260505064939 18 201 4.8 14.5 0.00 0.00 0.00 75 1004.7
20260505064436 18 205 1.6 6.4 0.00 0.00 0.00 75 1004.7
20260505063935 18 148 4.8 12.9 0.00 0.00 0.00 75 1004.6
20260505063431 18 224 3.2 17.7 0.00 0.00 0.00 75 1004.8
20260505062928 18 186 3.2 14.5 0.00 0.00 0.00 75 1004.9
20260505062425 18 133 1.6 12.9 0.00 0.00 0.00 75 1005.1
20260505061921 18 173 4.8 9.7 0.00 0.00 0.00 75 1005.0
20260505061420 18 136 3.2 11.3 0.00 0.00 0.00 75 1005.1
20260505060917 18 166 4.8 11.3 0.00 0.00 0.00 75 1005.1
20260505060414 18 231 6.4 12.9 0.00 0.00 0.00 75 1005.2
20260505055910 18 189 4.8 9.7 0.00 0.00 0.00 75 1005.3
20260505055406 18 167 3.2 4.8 0.00 0.00 0.00 75 1004.9
20260505054903 18 207 3.2 9.7 0.00 0.00 0.00 75 1005.2
20260505054400 18 179 4.8 6.4 0.00 0.00 0.00 75 1005.1
20260505053859 18 145 1.6 6.4 0.00 0.00 0.00 75 1005.1
20260505053355 18 146 6.4 11.3 0.00 0.00 0.00 74 1005.2
20260505052852 18 149 3.2 11.3 0.00 0.00 0.00 74 1004.9
20260505052349 18 141 8.0 11.3 0.00 0.00 0.00 74 1005.1
20260505051846 18 133 4.8 14.5 0.00 0.00 0.00 74 1005.1
20260505051343 18 172 4.8 9.7 0.00 0.00 0.00 75 1005.2
20260505050841 18 173 4.8 9.7 0.00 0.00 0.00 74 1005.0
20260505050340 18 199 4.8 9.7 0.00 0.00 0.00 74 1005.3
20260505041307 18 173 1.6 9.7 0.00 0.00 0.00 71 1005.8
20260505040804 19 173 6.4 6.4 0.00 0.00 0.00 70 1005.8
20260505040302 19 160 4.8 6.4 0.00 0.00 0.00 70 1006.0
20260505035758 19 159 3.2 4.8 0.00 0.00 0.00 70 1006.1
20260505035254 19 149 1.6 4.8 0.00 0.00 0.00 70 1006.0
20260505034751 19 149 8.0 12.9 0.00 0.00 0.00 69 1006.0
20260505034248 19 102 3.2 4.8 0.00 0.00 0.00 69 1006.2
20260505033744 19 145 1.6 4.8 0.00 0.00 0.00 69 1006.4
20260505033242 19 204 3.2 6.4 0.00 0.00 0.00 69 1006.2
20260505032740 19 149 3.2 11.3 0.00 0.00 0.00 69 1006.3
20260505032235 20 121 1.6 6.4 0.00 0.00 0.00 69 1006.4
20260505031733 20 156 1.6 6.4 0.00 0.00 0.00 68 1006.3
20260505031229 20 183 1.6 6.4 0.00 0.00 0.00 69 1006.3
20260505030726 20 165 1.6 4.8 0.00 0.00 0.00 69 1006.2
20260505030222 20 140 0.0 3.2 0.00 0.00 0.00 69 1006.4
20260505025718 20 143 0.0 4.8 0.00 0.00 0.00 69 1006.4
20260505025217 20 191 1.6 11.3 0.00 0.00 0.00 69 1006.4
20260505024715 20 170 1.6 6.4 0.00 0.00 0.00 69 1006.3
20260505024211 20 147 0.0 6.4 0.00 0.00 0.00 69 1006.3
20260505023709 20 207 1.6 4.8 0.00 0.00 0.00 69 1006.2
20260505023206 20 214 3.2 6.4 0.00 0.00 0.00 69 1006.3
20260505022704 20 165 1.6 6.4 0.00 0.00 0.00 70 1006.2
20260505022200 20 149 0.0 6.4 0.00 0.00 0.00 69 1006.0
20260505021657 20 153 1.6 3.2 0.00 0.00 0.00 68 1005.9
20260505021154 20 245 1.6 4.8 0.00 0.00 0.00 68 1005.9
20260505020649 20 175 0.0 4.8 0.00 0.00 0.00 67 1005.6
20260505020145 20 196 0.0 1.6 0.00 0.00 0.00 67 1005.8
20260505015643 20 181 1.6 3.2 0.00 0.00 0.00 67 1005.9
20260505015139 20 166 0.0 3.2 0.00 0.00 0.00 66 1005.6
20260505014636 20 164 0.0 0.0 0.00 0.00 0.00 65 1005.4
20260505014133 21 169 0.0 1.6 0.00 0.00 0.00 65 1005.6
20260505013631 21 172 1.6 3.2 0.00 0.00 0.00 64 1005.4
20260505013128 21 173 0.0 0.0 0.00 0.00 0.00 64 1005.3
20260505012626 21 154 1.6 4.8 0.00 0.00 0.00 63 1005.2
20260505012122 21 166 0.0 0.0 0.00 0.00 0.00 63 1005.1
20260505011618 21 168 0.0 0.0 0.00 0.00 0.00 64 1005.2
20260505011116 21 160 0.0 0.0 0.00 0.00 0.00 62 1005.0
20260505010611 21 164 0.0 1.6 0.00 0.00 0.00 62 1004.8
20260505010108 21 139 1.6 3.2 0.00 0.00 0.00 62 1004.9
20260505005604 21 161 0.0 3.2 0.00 0.00 0.00 61 1004.9
20260505005101 21 157 0.0 3.2 0.00 0.00 0.00 61 1004.8
20260505004558 22 154 0.0 3.2 0.00 0.00 0.00 60 1004.8
20260505004055 22 245 3.2 4.8 0.00 0.00 0.00 60 1004.8
20260505003552 22 166 0.0 6.4 0.00 0.00 0.00 58 1004.8
20260505003049 22 185 3.2 6.4 0.00 0.00 0.00 58 1004.9
20260505002544 22 209 1.6 6.4 0.00 0.00 0.00 58 1004.8
20260505002043 22 180 1.6 4.8 0.00 0.00 0.00 56 1004.7
20260505001540 22 185 3.2 6.4 0.00 0.00 0.00 56 1004.7
20260505001037 23 218 6.4 11.3 0.00 0.00 0.00 55 1004.7
20260505000535 23 200 0.0 6.4 0.00 0.00 0.00 55 1004.7
20260505000032 23 169 4.8 12.9 0.00 0.00 0.00 54 1004.6
20260504235529 23 161 3.2 9.7 0.00 0.00 0.00 54 1004.6
20260504235025 23 189 3.2 9.7 0.00 0.00 0.00 53 1004.6
20260504234522 24 133 4.8 9.7 0.00 0.00 0.00 53 1004.6
20260504234019 24 208 3.2 11.3 0.00 0.00 0.00 52 1004.4
20260504233514 25 215 4.8 12.9 0.00 0.00 0.00 51 1004.5
20260504233012 25 243 3.2 6.4 0.00 0.00 0.00 51 1004.5
20260504232509 25 181 1.6 6.4 0.00 0.00 0.00 51 1004.5
20260504232007 25 171 6.4 12.9 0.00 0.00 0.00 48 1004.4
20260504231503 25 148 4.8 11.3 0.00 0.00 0.00 48 1004.6
20260504230959 25 260 6.4 11.3 0.00 0.00 0.00 50 1004.2
20260504230455 25 163 6.4 16.1 0.00 0.00 0.00 49 1004.4
20260504225955 25 121 9.7 17.7 0.00 0.00 0.00 48 1004.4
20260504225451 25 183 16.1 22.5 0.00 0.00 0.00 47 1004.3
20260504224948 25 287 1.6 11.3 0.00 0.00 0.00 50 1004.4
20260504224444 25 197 9.7 16.1 0.00 0.00 0.00 50 1004.5
20260504223942 26 162 8.0 20.9 0.00 0.00 0.00 49 1004.5
20260504223438 26 200 3.2 12.9 0.00 0.00 0.00 49 1004.5
20260504222933 26 141 3.2 17.7 0.00 0.00 0.00 49 1004.4
20260504222431 26 180 12.9 33.8 0.00 0.00 0.00 48 1004.4
20260504221929 26 213 4.8 14.5 0.00 0.00 0.00 49 1004.5
20260504221425 26 175 3.2 14.5 0.00 0.00 0.00 50 1004.6
20260504220923 26 221 8.0 20.9 0.00 0.00 0.00 50 1004.5
20260504220419 26 250 8.0 27.4 0.00 0.00 0.00 48 1004.5
20260504215916 26 203 6.4 14.5 0.00 0.00 0.00 49 1004.8
20260504215413 26 238 11.3 24.1 0.00 0.00 0.00 47 1004.7
20260504214909 26 261 12.9 17.7 0.00 0.00 0.00 49 1004.7
20260504214406 26 179 11.3 25.7 0.00 0.00 0.00 49 1004.7
20260504213903 26 253 9.7 14.5 0.00 0.00 0.00 49 1004.7
20260504213358 26 189 6.4 20.9 0.00 0.00 0.00 49 1004.6
20260504212856 26 209 6.4 14.5 0.00 0.00 0.00 50 1004.8
20260504212352 26 211 14.5 17.7 0.00 0.00 0.00 49 1004.8
20260504211850 25 246 8.0 20.9 0.00 0.00 0.00 51 1004.8
20260504211346 26 134 8.0 17.7 0.00 0.00 0.00 49 1004.8
20260504210843 26 191 11.3 14.5 0.00 0.00 0.00 49 1004.9
20260504210340 25 298 11.3 17.7 0.00 0.00 0.00 49 1005.0
20260504205837 25 225 12.9 24.1 0.00 0.00 0.00 50 1005.1
20260504205335 26 237 9.7 20.9 0.00 0.00 0.00 49 1005.1
20260504204833 26 106 6.4 25.7 0.00 0.00 0.00 49 1005.1
20260504204331 26 156 9.7 25.7 0.00 0.00 0.00 48 1005.1
20260504203830 26 247 6.4 12.9 0.00 0.00 0.00 51 1005.2
20260504203327 26 214 16.1 17.7 0.00 0.00 0.00 48 1005.2
20260504202822 26 266 17.7 25.7 0.00 0.00 0.00 48 1005.4
20260504202320 26 206 11.3 22.5 0.00 0.00 0.00 49 1005.7
20260504201816 26 216 19.3 30.6 0.00 0.00 0.00 48 1005.7
20260504201314 26 228 11.3 14.5 0.00 0.00 0.00 49 1005.6
20260504200811 26 236 14.5 22.5 0.00 0.00 0.00 50 1005.9
20260504200308 26 204 9.7 22.5 0.00 0.00 0.00 50 1005.9
20260504195804 25 237 8.0 16.1 0.00 0.00 0.00 49 1005.8
20260504195300 25 237 17.7 35.4 0.00 0.00 0.00 48 1006.0
20260504194757 26 234 14.5 17.7 0.00 0.00 0.00 49 1005.6
20260504194253 26 221 12.9 24.1 0.00 0.00 0.00 49 1006.2
20260504193749 26 217 12.9 27.4 0.00 0.00 0.00 49 1006.0
20260504193247 26 215 6.4 17.7 0.00 0.00 0.00 50 1005.9
20260504192745 26 183 14.5 20.9 0.00 0.00 0.00 48 1006.2
20260504192243 26 77 3.2 17.7 0.00 0.00 0.00 50 1006.0
20260504191741 25 236 14.5 22.5 0.00 0.00 0.00 49 1006.3
20260504191238 25 245 12.9 22.5 0.00 0.00 0.00 49 1005.9
20260504190733 26 139 9.7 24.1 0.00 0.00 0.00 51 1006.1
20260504190230 25 162 3.2 22.5 0.00 0.00 0.00 52 1006.1
20260504185726 25 144 3.2 24.1 0.00 0.00 0.00 53 1006.2
20260504185223 25 190 16.1 22.5 0.00 0.00 0.00 50 1006.1
20260504184719 25 263 14.5 16.1 0.00 0.00 0.00 50 1006.1
20260504184215 26 288 17.7 29.0 0.00 0.00 0.00 50 1006.2
20260504183711 26 218 9.7 22.5 0.00 0.00 0.00 49 1006.1
20260504183209 25 166 1.6 20.9 0.00 0.00 0.00 54 1006.1
20260504182707 25 254 16.1 25.7 0.00 0.00 0.00 50 1006.1
20260504182203 25 246 12.9 17.7 0.00 0.00 0.00 51 1006.2
20260504181701 26 242 8.0 22.5 0.00 0.00 0.00 52 1006.1
20260504181158 25 171 9.7 20.9 0.00 0.00 0.00 51 1006.2
20260504180657 26 260 14.5 16.1 0.00 0.00 0.00 49 1006.2
20260504180155 25 143 9.7 20.9 0.00 0.00 0.00 52 1006.1
20260504175652 25 259 11.3 24.1 0.00 0.00 0.00 51 1006.4
20260504175149 25 127 11.3 17.7 0.00 0.00 0.00 51 1006.3
20260504174647 25 145 8.0 25.7 0.00 0.00 0.00 51 1006.3
20260504174144 25 111 4.8 25.7 0.00 0.00 0.00 51 1006.3
20260504173641 25 215 17.7 24.1 0.00 0.00 0.00 50 1006.6
20260504173138 25 194 14.5 24.1 0.00 0.00 0.00 50 1006.6
20260504172635 25 236 16.1 22.5 0.00 0.00 0.00 51 1006.8
20260504172131 25 207 8.0 20.9 0.00 0.00 0.00 51 1006.5
20260504171628 25 264 8.0 12.9 0.00 0.00 0.00 51 1006.4
20260504171125 24 206 12.9 22.5 0.00 0.00 0.00 50 1006.6
20260504170621 24 254 20.9 27.4 0.00 0.00 0.00 50 1006.6
20260504170119 24 210 11.3 24.1 0.00 0.00 0.00 51 1006.6
20260504151004 22 176 8.0 24.1 0.00 0.00 0.00 53 1007.5
20260504150502 22 276 6.4 16.1 0.00 0.00 0.00 55 1007.4